Home   Weather   48°29'N, 9°12'E   Past weeks
Flag for Germany

Past Weather in 48°29'N, 9°12'E, Germany — Yesterday and Last 2 Weeks

Now
64 °F

Scattered showers. Passing clouds.


Feels Like: 64 °F
Forecast: 62 / 56 °F
Wind: 2 mph from North

Location: Stuttgart-Echterdingen

Current Time: Aug 19, 2019 at 3:38:46 am

Latest Report: Aug 19, 2019 at 3:20 am


Visibility: N/A

Pressure: 30.01 "Hg

Humidity: 88%

Dew Point: 61 °F

Location of 48°29'N, 9°12'ELocation

Past Weather in 48°29'N, 9°12'E — Graph

°F

48°29'N, 9°12'E Temperature Yesterday

Maximum temperature yesterday: 90 °F (at 3:20 pm)
Minimum temperature yesterday: 59 °F (at 5:20 am)
Average temperature yesterday: 73 °F

High & Low Weather Summary for the Past Weeks

 TemperatureHumidityPressure
High91 °F (Aug 9, 3:50 pm)100% (Aug 4, 5:20 am)30.15 "Hg (Aug 4, 5:20 am)
Low48 °F (Aug 14, 4:20 am)29% (Aug 18, 3:20 pm)29.80 "Hg (Aug 6, 8:50 pm)
Average67 °F71%29.99 "Hg
* Reported Aug 4 1:20 am — Aug 19 1:50 am, 48°29'N, 9°12'E. Weather by CustomWeather, © 2019

Note: Actual official high and low records may vary slightly from our data, if they occured in-between our weather recording intervals... More about our weather records

Advertising

48°29'N, 9°12'E Weather History for the Previous 24 Hours

Scroll right to see more
 ConditionsComfort  
Time TempWeatherWind HumidityBarometerVisibility
1:50 am
Mon, Aug 19
64 °FScattered showers. Passing clouds.7 mph88%30.01 "HgN/A
1:20 am66 °FScattered showers. Passing clouds.3 mph83%29.95 "HgN/A
12:50 am66 °FPassing clouds.6 mph88%29.95 "HgN/A
12:20 am68 °FThundershowers. Passing clouds.3 mph78%29.92 "HgN/A
11:50 pm
Sun, Aug 18
70 °FThunderstorms. Passing clouds.9 mph73%29.98 "HgN/A
11:20 pm72 °FScattered showers. Passing clouds.15 mph65%29.92 "HgN/A
10:50 pm73 °FPassing clouds.14 mph65%29.89 "HgN/A
10:20 pm73 °FPassing clouds.3 mph65%29.86 "HgN/A
9:50 pm75 °FPassing clouds.5 mph61%29.89 "HgN/A
9:20 pm77 °FPassing clouds.8 mph54%29.89 "HgN/A
8:50 pm75 °FPassing clouds.9 mph61%29.86 "HgN/A
7:50 pm77 °FSunny.9 mph57%29.83 "Hg10 mi
7:20 pm79 °FPassing clouds.5 mph54%29.83 "HgN/A
6:50 pm81 °FPassing clouds.5 mph48%29.83 "HgN/A
6:20 pm81 °FPassing clouds.9 mph51%29.83 "HgN/A
5:50 pm82 °FThunderstorms. Scattered clouds.7 mph42%29.83 "HgN/A
5:20 pm84 °FScattered showers. Passing clouds.17 mph37%29.86 "HgN/A
4:50 pm86 °FPassing clouds.12 mph35%29.80 "HgN/A
4:20 pm90 °FPassing clouds.13 mph31%29.83 "HgN/A
3:50 pm90 °FPassing clouds.13 mph29%29.80 "HgN/A
3:20 pm90 °FPassing clouds.10 mph29%29.83 "HgN/A
2:50 pm88 °FPassing clouds.7 mph33%29.80 "HgN/A
1:50 pm88 °FPassing clouds.7 mph35%29.83 "HgN/A
1:20 pm86 °FSunny.5 mph40%29.83 "Hg10 mi
12:50 pm84 °FSunny.7 mph43%29.83 "Hg10 mi
12:20 pm82 °FPassing clouds.7 mph48%29.83 "HgN/A
11:50 am82 °FPassing clouds.6 mph48%29.83 "HgN/A
11:20 am81 °FPassing clouds.7 mph51%29.86 "HgN/A
10:50 am79 °FSunny.5 mph54%29.86 "Hg10 mi
10:20 am77 °FPassing clouds.5 mph61%29.86 "HgN/A
9:50 am73 °FPassing clouds.5 mph69%29.86 "HgN/A
9:20 am70 °FSunny.2 mph73%29.86 "Hg10 mi
8:50 am68 °FPassing clouds.3 mph78%29.86 "HgN/A
7:50 am63 °FLight fog.2 mph88%29.86 "HgN/A
7:20 am61 °FLight fog.2 mph94%29.86 "HgN/A
6:50 am59 °FSunny.1 mph94%29.86 "Hg10 mi
6:20 am59 °FSunny.1 mph94%29.86 "Hg10 mi
5:50 am59 °FClear.2 mph94%29.86 "Hg10 mi
5:20 am59 °FClear.1 mph94%29.86 "Hg10 mi
4:50 am61 °FClear.1 mph88%29.86 "Hg10 mi
4:20 am61 °FClear.1 mph94%29.86 "Hg10 mi
3:50 am61 °FClear.No wind94%29.86 "Hg10 mi
3:20 am61 °FClear.1 mph94%29.89 "Hg10 mi
Weather by CustomWeather, © 2019

See weather overview